星链-37031(STARLINK-37031)

导读

STARLINK-37031(NORAD编号68172)是美国太空探索技术公司(SpaceX)星链(Starlink)项目的低轨互联网通信卫星,采用Starlink V1.0平台,于2024年12月8日发射,截至2026年4月已在轨运行约488天。卫星运行在近地轨道,轨道倾角约70°,近地点约570公里,远地点约574公里,周期约96分钟。作为星链星座的组成部分,它为全球,尤其是偏远地区提供高速低延迟互联网接入服务,同时可支持军事、航空等领域通信需求,助力缩小全球数字鸿沟。

基本信息
目录编号:
68172
目录名称:
STARLINK-37031
国际标识:
2026-050F
轨道中心:
EARTH
卫星名称:
星链-37031
卫星全名:
星链-37031(STARLINK-37031)
卫星状态:
在轨 (已飞行175 天)
发射日期:
2026-03-14 UTC
国别 :
美国 (US)
星等 :
--
轨道信息
数据来源 国际轨道数据
星历时间: 2026-09-05T07:45:53+0800
13小时前
查看轨道信息
半长轴: 6840.861km
偏心率: 0.0001253
轨道倾角: 53.158°
近地点辐角 95.309°
升交点赤经 150.460°
平近点角 264.805°
近地点: 461.866km
远地点: 463.582km
周期: 93.848分钟
每日圈数: 15.343933
详细信息
固有亮度:
5
最大亮度:
2.5
卫星平台:
Starlink V1.0
覆盖范围:
全球
运营商:
太空探索技术公司
运营商所在国:
美国
制造商(研发单位):
太空探索技术公司
制造商所在国:
美国
使用方式:
暂无
卫星简介
Starlink 计划是 SpaceX 推出的全球卫星互联网项目,通过发射低轨道卫星,为全球尤其是偏远地区提供高速、低延迟的互联网服务。自 2019 年起,Starlink 已部署数千颗卫星,旨在缩小全球数字鸿沟,推动互联网普及。该项目还为军事、航空等行业提供通信支持,带来广泛经济效益。
2D轨道图
3D轨道图
轨道高度分析图
轨道倾角分析图
轨道综合分析图
查看轨道综合分析图
交会数据列表
事件ID 空间交会对象 最接近时刻(TCA) 交会距离 交会风险概率(CRP) 交会风险指数(CRI) 操作
CDM_260907-104606-551906-817221
2026-09-07T
10:46:54+0000
0.384 km
远距离
7.195366E-5 中风险 0.72
CDM_260907-113306-551906-817221
2026-09-07T
11:33:48+0000
0.758 km
远距离
9.087881E-6 低风险 0.54
CDM_260906-212305-314306-817221
2026-09-06T
21:23:38+0000
1.493 km
极远距离
4.042182E-6 低风险 0.47
CDM_260907-130706-551906-817221
2026-09-07T
13:07:35+0000
1.217 km
极远距离
1.869019E-6 低风险 0.4
CDM_260906-034905-892706-817221
OBJECT L (58927)
2026-09-06T
03:49:18+0000
2.588 km
极远距离
1.648321E-6 低风险 0.39
CDM_260907-122006-551906-817221
2026-09-07T
12:20:41+0000
1.849 km
极远距离
5.94673E-7 极低风险 0.3
CDM_260907-091306-551906-817221
2026-09-07T
09:13:06+0000
2.093 km
极远距离
4.612097E-7 极低风险 0.28
CDM_260907-100006-551906-817221
2026-09-07T
10:00:00+0000
2.699 km
极远距离
3.152672E-7 极低风险 0.25